Location: Diebersbach
(48.5163°N, 8.0558°E)
Time: 22:30:02
(UTC+00:00)

FENGYUN 1C DEB - Pass Details

Date: 05 February 2022
Orbit: 690 x 984 km, 98.6° (Epoch: 20 May)

Event Time Altitude Azimuth Distance (km) Brightness Sun altitude
Rises 05:46:18 0° 21° (NNE) 3,504 ? -11.1°
Reaches altitude 10° 05:49:04 10° 31° (NNE) 2,511 ? -10.7°
Maximum altitude 05:53:59 32° 94° (E) 1,384 ? -9.9°
Drops below altitude 10° 05:58:33 10° 156° (SSE) 2,323 ? -9.1°
Sets 06:01:00 0° 167° (SSE) 3,202 ? -8.7°
